Starlink 3614

operational
NORAD ID: 51771 Int'l Des: 2022-017 Owner: SPXS Country: US Constellation: starlink
LEOCIRCULAR

Über Starlink 3614

Beschreibung wird geladen...

Live-Position

3D-Globus wird geladen...

Nächste Überflüge

Höhenverlauf

Altitude vs Time

uPlot chart will show altitude changes over time

Zweizeiliger Elementsatz

1 51771U 22017D 25353.26061212 .00000004 00000-0 18330-4 0 9994
2 51771 53.2190 340.1717 0001217 89.1370 270.9762 15.08830494210463
Epoch: 19. Dez. 2025 • Age: 13 hours

Aktueller Status

Höhe 541.1 km
Geschwindigkeit 7.60 km/s
Subsatellitenpunkt 31.24°N, 108.37°E
Startdatum 25. Feb. 2022
Alter 3.8 years
Typ internet

Technische Details

Klassifizierung Payload
Masse 297.00 kg
Trockenmasse 275.00 kg
Gesamtmasse 297.00 kg
Länge 0.20 m
Durchmesser 2.80 m
Spannweite 9.00 m
Form Box + pan
Hersteller SPXS
Bus-Typ Starlink
Phasenstatus In Orbit
Besitzer/Staat SPXS/US

Große Konstellationen

Loading constellations...